Hourly Weather Roundup
Issued by NWS Central Illinois

Home | Current Version | Previous Version | Graphics & Text | Print | Product List | Glossary On
Versions: 1 2 3 4 5 6 7 8 9 10 11 12 13 14 15 16 17 18 19 20 21 22 23 24 25 26 27 28 29 30 31 32 33 34 35 36 37 38 39 40 41 42 43 44 45 46 47 48 49 50
000
NZUS43 KILX 300810
HWRILX

AREA WEATHER ROUNDUP
NATIONAL WEATHER SERVICE, LINCOLN IL
300 AM CDT WED JUL 30 2014


CITY           SKY/WX    TMP DP  RH WIND       PRES   REMARKS
BLOOMINGTON    CLEAR     62  56  81 W6        30.06S
CHAMPAIGN      CLEAR     58  56  93 SW7       30.05F
DECATUR        CLEAR     64  57  78 W7        30.06F
FLORA          CLEAR     55  54  94 CALM      30.08F
GALESBURG      CLEAR     57  55  92 CALM      30.06S
JACKSONVILLE   CLEAR     60  58  92 SW6       30.08S
LACON          CLEAR     58  55  90 CALM      30.03S
LAWRENCEVILLE  CLEAR     57  55  93 CALM      30.07S
LITCHFIELD     CLEAR     55  53  95 CALM      30.08S
$$


CITY           SKY/WX    TMP DP  RH WIND       PRES   REMARKS
LINCOLN        CLEAR     65  58  76 W3        30.03F
MACOMB         CLEAR     55  55  97 W5        30.08F
MATTOON        CLEAR     63  55  75 W7        30.05F
MT CARMEL AP   CLEAR     55  55 100 W3        30.07S
OLNEY-NOBLE AP CLEAR     54  54 100 CALM      30.08S
PARIS          CLEAR     59  56  91 SW5       30.06S
PEORIA         PTCLDY    64  57  78 CALM      30.05S
PONTIAC        CLEAR     59  57  94 CALM      30.03F
RANTOUL        CLEAR     61  56  85 W7        30.05F
ROBINSON       CLEAR     56  55  96 SW3       30.07F
SPRINGFIELD    CLEAR     60  56  86 W6        30.07S
TAYLORVILLE    CLEAR     55  54  94 CALM      30.07S
$$

...REGIONAL REPORTS...


CITY           SKY/WX    TMP DP  RH WIND       PRES   REMARKS
CHICAGO O`HARE PTCLDY    60  53  77 W6        30.00S
KANKAKEE       PTCLDY    60  58  95 CALM      30.02F
MOLINE         CLEAR     59  56  89 SW3       30.04F
MOUNT VERNON   CLEAR     55  52  88 CALM      30.09F
PITTSFIELD     CLEAR     58  55  90 W3        30.09F
QUINCY         CLEAR     59  56  89 SW3       30.08S
ROCKFORD       CLOUDY    60  54  80 CALM      30.04F
$$


CITY           SKY/WX    TMP DP  RH WIND       PRES   REMARKS
BURLINGTON     CLEAR     61  57  87 NW6       30.06F
CEDAR RAPIDS   CLEAR     56  50  80 W5        30.06S
DES MOINES     CLEAR     62  56  80 NW3       30.09F
KIRKSVILLE     MOCLDY    62  57  83 CALM      30.10F
OTTUMWA        PTCLDY    57  56  96 CALM      30.08S
ST LOUIS       MOCLDY    68  57  68 CALM      30.09S
$$


CITY           SKY/WX    TMP DP  RH WIND       PRES   REMARKS
TERRE HAUTE    CLEAR     58  55  90 CALM      30.05F
EVANSVILLE     CLEAR     63  57  81 SW3       30.08S
INDIANAPOLIS   PTCLDY    59  57  93 SW7       30.03F
LAFAYETTE      RAIN      58  58 100 CALM      30.02S
MADISON        CLOUDY    60  56  86 CALM      30.02S
MILWAUKEE      PTCLDY    60  55  83 W6        29.99F
$$





USA.gov is the U.S. government's official web portal to all federal, state and local government web resources and services.